Probability
0 0 0 0 0 0 0 0 0 0 0 0 0 0 0 0 0 0 0 0 0 0 0 0 0 0 0 0 0 0 0 0 0 0 0 0 0 0
0 0 0 0 0 0 0 0 0 0 0 0 0 0 0 0 0 0 0 0 0 0 0 0 0 0 0 0 0 0 0 0 0 0 0 0 0 0
0 0 0 0 0 0 0 0 0 0 0 0 0 0 0 0 0 0 0 0 0 0 0 0 0 0 0 0 0 0 0 0 0 0 0 0 0 0
0 0 0 0 0 0 0 0 0 0 0 0 0 0 0 0 0 0 0 0 0 0 0 0 0 0 0 0 0 0 0 0 0 0 0 0 0 0
0 0 0 0 0 0 0 0 0 0 0 0 0 0 0 0 0 0 0 0 0 0 0 0 0 0 0 0 0 0 0 0 0 0 0 0 0 0
0 0 0 0 0 0 0 0 0 0 0 0 0 0 0 0 0 0 0 0 0 0 0 0 0 0 0 0 0 0 0 0 0 0 0 0 0 0
0 0 1 1 1 0 0 0 0 0 0 0 0 0 0 0 0 0 0 0 0 0 0 0 0 0 0 0 0 0 0 0 0 0 0 0 0 0
0 0 0 0 0 0 0 0 0 0 0 0 0 0 0 0 0 0 0 0 0 0 0 0 0 0 0 0 0 0 0 0 0 0 0 0 0 0
0 0 0 0 0 0 0 0 0 0 0 0 0 0 0 0 0 0 0 0 0 0 0 0 0 0 0 0 0 0 0 0 0 0 0 0 0 0
0 0 0 0 0 0 0 0 0 0 0 0 0 0 0 0 0 0 0 0 0 0 0 0 0 0 0 0 0 0 0 0 0 0 0 0 0 0
0 0 0 0 0 0 0 0 0 0 0 0 0 0 0 0 0 0 0 0 0 0 0 0 0 0 0 0 0 0 0 0 0 0 0 0 0 0
0 0 0 0 0 0 0 0 0 0 0 0 0 0 0 0 0 0 0 0 0 0 0 0 0 0 0 0 0 0 0 0 0 0 0 0 0 0
0 0 0 0 0 0 0 0 0 0 0 0 0 0 0 0 0 0 0 0 0 0 0 0 0 0 0 0 0 0 0 0 0 0 0 0 0 0
0 0 0 0 0 0 0 0 0 0 0 0 0 0 0 0 0 0 0 0 0 0 0 0 0 0 0 0 0 0 0 0 0 0 0 0 0 0
0 0 0 0 0 0 0 0 0 0 0 0 0 0 0 0 0 0 0 0 0 0 0 0 0 0 0 0 0 0 0 0 0 0 0 0 0 0
0 0 0 0 0 0 0 0 0 0 0 0 0 0 0 0 0 0 0 0 0 0 0 0 0 0 0 0 0 0 0 0 0 0 0 0 0 0
0 0 0 0 0 0 0 0 0 0 0 0 0 0 0 0 0 0 0 0 0 0 0 0 0 0 0 0 0 0 0 0 0 0 0 0 0 0
0 0 0 0 0 0 0 0 0 0 0 0 0 0 0 0 0 0 0 0 0 0 0 0 0 0 0 0 0 0 0 0 0 0 0 0 0 0
0 0 0 0 0 0 0 0 0 0 0 0 0 0 0 0 0 0 0 0 0 0 0 0 0 0 0 0 0 0 0 0 0 0 0 0 0 0
0 0 0 0 0 0 0 0 0 0 0 0 0 0 0 0 0 0 0 0 0 0 0 0 0 0 0 0 0 0 0 0 0 0 0 0 0 0
0 0 0 0 0 0 0 0 0 0 0 0 0 0 0 0 0 0 0 0 0 0 0 0 0 0 0 0 0 0 0 0 0 0 0 0 0 0
0 0 0 0 0 0 0 0 0 0 0 0 0 0 0 0 0 0 0 0 0 0 0 0 0 0 0 0 0 0 0 0 0 0 0 0 0 0
0 0 0 0 0 0 0 0 0 0 0 0 0 0 0 0 0 0 0 0 0 0 0 0 0 0 0 0 0 0 0 0 0 0 0 0 0 0
Wind_Speed
13 13 12 10 9 9 8 8 9 9 9 9 8 9 9 8 13 11 9 16 17 17 16 15 13 12 11 10 8 7 6 4 4 4 6 7 9 10
11 12 13 10 9 9 9 9 10 11 10 5 8 6 9 9 14 11 10 16 17 17 16 15 14 13 12 11 9 8 7 6 5 5 6 7 9 10
13 14 15 12 10 9 9 9 9 9 12 5 2 4 8 9 8 8 7 8 8 15 16 15 15 14 13 12 10 9 8 7 6 6 6 7 8 10
15 14 15 10 13 10 9 10 10 9 9 9 3 4 6 8 7 7 6 6 5 12 16 16 15 14 13 12 11 10 9 8 7 6 7 7 8 10
14 14 13 12 13 10 10 10 8 7 7 6 4 3 2 4 6 5 6 5 6 9 14 15 15 14 13 13 12 11 9 9 8 7 7 7 8 9
12 12 12 12 13 11 9 10 7 6 5 4 4 4 3 4 5 6 6 6 5 5 9 10 12 13 14 13 12 11 10 10 9 8 8 8 9 9
10 10 11 12 13 11 8 8 8 6 5 5 5 4 5 5 7 6 6 5 4 5 5 5 5 5 7 11 11 12 12 11 10 9 9 9 9 9
9 8 7 8 10 11 11 10 9 8 8 6 6 7 7 7 5 6 6 5 5 6 6 6 5 6 5 5 10 13 13 12 11 10 10 9 10 10
8 6 5 4 6 5 6 7 7 9 9 7 7 8 7 9 10 9 8 6 4 5 6 5 5 6 5 7 14 14 13 13 12 11 10 10 10 10
6 6 6 5 5 6 4 4 3 3 5 4 5 5 5 8 9 8 7 5 4 3 4 4 4 4 4 4 12 14 13 13 12 11 11 10 11 10
3 4 5 5 7 9 6 5 4 2 3 5 5 6 8 12 11 7 7 6 3 3 3 3 3 2 2 3 7 12 13 12 12 11 11 11 11 9
2 2 4 5 7 9 6 6 6 4 5 5 5 6 6 10 13 8 8 6 4 4 5 5 3 3 2 2 2 3 5 9 11 11 11 10 10 4
2 2 2 6 7 8 7 5 6 7 6 6 5 4 4 4 5 4 4 4 5 4 6 6 4 3 3 2 2 2 2 2 3 5 8 10 10 6
2 2 3 6 7 7 5 6 9 8 5 4 4 4 4 4 4 4 3 2 2 2 7 7 4 5 4 3 3 2 2 3 3 3 2 6 8 10
2 4 5 6 5 4 6 9 7 5 4 4 4 3 3 4 4 3 3 3 3 2 3 4 4 4 4 4 3 2 2 3 3 3 3 3 3 3
3 4 6 6 5 5 5 5 3 3 4 3 3 3 3 4 3 3 3 3 2 1 1 1 3 4 3 3 3 3 3 3 3 3 3 3 3 4
5 3 3 3 3 2 3 3 3 3 3 3 3 3 3 3 3 3 3 3 3 3 2 1 1 1 2 3 4 5 4 4 3 3 3 4 5 5
5 3 3 3 3 3 3 3 3 3 3 3 3 4 4 4 3 3 3 3 4 3 3 3 2 1 1 4 9 6 5 5 4 4 4 4 5 4
3 3 3 3 3 3 3 3 3 3 3 3 4 4 4 4 4 4 4 3 4 3 3 3 4 4 4 5 4 9 6 4 3 3 5 5 5 4
2 2 2 2 2 2 2 2 2 3 3 3 3 4 4 4 4 4 5 5 4 4 3 4 6 7 7 5 3 3 8 5 4 4 4 3 4 6
2 2 2 2 2 2 2 2 2 3 3 3 3 4 4 4 4 5 5 6 5 5 6 6 6 6 2 1 2 3 3 7 7 4 3 2 2 2
2 2 1 1 1 1 1 2 2 2 3 3 3 3 3 4 5 5 5 5 5 6 6 3 3 3 4 5 6 4 2 2 5 9 8 7 4 4
2 2 2 1 1 1 1 1 2 2 2 2 2 3 3 3 3 4 4 5 4 5 4 3 3 3 4 5 5 4 3 3 2 2 4 8 11 11
Wind_Direction
226 225 228 230 225 225 221 215 226 243 241 212 207 207 204 199 201 199 199 204 206 208 208 206 206 208 209 212 215 219 231 246 267 291 309 319 326 330
226 228 230 231 229 226 225 225 226 240 255 215 206 191 191 198 200 196 200 199 203 207 208 208 209 211 212 215 217 221 230 245 263 281 298 310 319 324
227 228 232 229 230 228 226 227 228 229 248 249 179 164 179 192 193 192 188 196 200 206 208 209 210 211 214 217 220 222 229 241 256 273 289 302 312 319
230 230 233 229 231 231 230 231 231 226 234 245 196 173 185 188 180 183 185 192 193 205 210 212 211 213 216 219 221 223 228 238 251 265 279 293 304 313
230 230 232 227 232 230 229 232 231 225 224 228 201 160 151 160 161 173 182 186 195 203 209 212 212 215 218 220 220 222 225 234 246 255 269 284 296 306
231 230 230 227 230 227 227 228 223 219 208 205 182 154 153 153 162 176 187 188 193 193 207 211 213 216 219 218 219 220 224 231 240 248 260 274 286 297
231 230 230 228 227 224 222 219 210 213 200 196 190 166 171 170 188 179 187 170 181 184 193 203 204 209 211 219 218 220 224 230 236 243 253 265 278 289
231 230 228 225 227 225 225 220 207 206 204 201 200 198 196 185 166 169 164 163 196 188 188 201 190 205 207 211 220 223 225 229 236 242 250 261 274 283
227 223 220 213 212 212 212 215 218 213 204 196 199 201 188 182 171 173 181 180 183 163 171 195 191 213 204 218 224 227 227 230 236 242 249 261 272 280
219 211 208 203 194 187 183 186 195 203 202 199 203 194 180 169 174 172 165 133 89 137 164 187 187 210 202 213 229 228 229 231 237 243 250 262 270 276
211 197 192 194 190 180 173 177 175 172 160 154 156 156 157 158 154 138 143 147 160 180 179 178 177 185 201 218 229 232 232 232 238 244 250 261 268 273
191 184 190 189 184 177 172 172 180 173 146 132 130 135 140 155 161 165 163 164 155 181 181 176 163 153 214 225 213 225 235 237 240 244 250 258 265 263
181 182 186 185 182 181 175 175 177 155 147 142 136 131 129 143 159 159 163 167 166 180 170 166 159 166 185 213 235 217 209 221 237 246 251 257 264 263
180 177 178 177 178 173 167 159 151 139 136 141 146 156 160 162 159 152 143 120 108 155 164 163 165 172 169 190 228 221 216 219 217 226 236 264 267 269
149 156 155 161 156 152 153 148 142 141 146 157 169 171 157 144 133 123 112 103 84 86 150 169 170 170 177 192 198 194 215 223 211 218 223 232 239 250
118 125 131 133 119 115 131 131 130 144 154 161 152 135 128 135 148 154 159 158 157 173 148 165 186 179 192 202 201 218 202 219 213 217 227 235 237 232
127 115 117 125 125 122 120 120 124 132 135 133 137 140 150 158 163 160 157 162 180 182 180 175 175 194 218 191 216 228 220 225 222 208 214 245 242 233
129 139 148 154 161 160 159 155 158 165 160 153 156 162 172 179 175 169 170 183 201 204 194 170 153 110 335 265 225 230 224 227 217 204 207 236 256 241
129 144 156 165 168 168 170 170 174 172 161 164 171 173 174 176 176 183 189 199 213 213 198 172 174 180 217 255 250 212 213 215 202 211 217 222 247 255
116 141 150 154 158 165 168 166 163 159 166 175 180 182 181 182 188 195 198 205 210 209 205 194 199 203 217 237 243 236 220 212 207 222 223 229 258 278
125 129 134 140 147 156 163 164 168 178 183 185 192 193 192 193 201 203 204 206 207 210 219 222 219 207 191 125 263 261 252 234 227 224 206 215 245 258
108 113 113 117 129 146 160 164 172 183 188 196 200 201 201 202 209 209 207 209 213 219 228 220 166 167 185 215 240 248 237 244 257 250 241 220 201 216
81 93 97 102 108 123 143 161 173 184 187 192 196 201 202 210 214 213 215 217 219 221 219 202 178 189 208 221 237 244 241 229 231 254 254 254 253 260